Location: Newark
(48.1500°N, 2.9667°W)
Time: 09:38:41
(UTC+00:00)

A-11 Canister half - Pass Details

Date: 26 January 2020
Orbit: 1524 x 1684 km, 47.3° (Epoch: 22 February)

Event Time Altitude Azimuth Distance (km) Brightness Sun altitude
Rises 17:53:39 0° 234° (SW) 4,667 13.2 -8.9°
Reaches altitude 10° 17:56:42 10° 231° (SW) 3,692 12.3 -9.4°
Maximum altitude 18:05:48 62° 153° (SSE) 1,716 9.2 -10.8°
Enters shadow 18:13:59 15° 78° (ENE) 3,422 10.1 -12.1°
Drops below altitude 10° 18:15:11 10° 76° (ENE) 3,794 - -12.3°
Sets 18:18:21 0° 74° (ENE) 4,802 - -12.8°
